TimeEST,TemperatureF,Dew PointF,Humidity,Sea Level PressureIn,VisibilityMPH,Wind Direction,Wind SpeedMPH,Gust SpeedMPH,PrecipitationIn,Events,Conditions,WindDirDegrees,DateUTC
12:15 AM,39.2,32.0,75,30.37,10.0,SSE,6.9,-,N/A,,Clear,160,2012-11-19 05:15:00
12:36 AM,38.8,32.4,78,30.36,10.0,SSE,5.8,-,N/A,,Clear,160,2012-11-19 05:36:00
12:55 AM,38.3,32.5,80,30.36,7.0,South,4.6,-,N/A,,Clear,170,2012-11-19 05:55:00
1:15 AM,38.5,32.9,80,30.35,10.0,South,4.6,-,N/A,,Clear,170,2012-11-19 06:15:00
1:35 AM,38.3,33.1,81,30.35,7.0,South,3.5,-,N/A,,Clear,170,2012-11-19 06:35:00
1:55 AM,37.6,33.3,84,30.35,7.0,South,4.6,-,N/A,,Clear,170,2012-11-19 06:55:00
2:16 AM,37.4,33.8,87,30.35,7.0,SSE,6.9,-,N/A,,Clear,160,2012-11-19 07:16:00
2:35 AM,37.0,33.6,87,30.35,7.0,SSE,5.8,-,N/A,,Clear,160,2012-11-19 07:35:00
2:55 AM,37.0,33.8,88,30.35,7.0,SSE,6.9,-,N/A,,Clear,150,2012-11-19 07:55:00
3:16 AM,36.9,33.8,89,30.35,7.0,SSE,6.9,-,N/A,,Clear,160,2012-11-19 08:16:00
3:35 AM,37.6,33.8,86,30.34,7.0,SSE,3.5,-,N/A,,Clear,160,2012-11-19 08:35:00
3:55 AM,37.4,33.4,86,30.34,7.0,Calm,Calm,-,N/A,,Clear,0,2012-11-19 08:55:00
4:16 AM,36.7,33.1,87,30.33,7.0,Calm,Calm,-,N/A,,Clear,0,2012-11-19 09:16:00
4:35 AM,35.8,32.5,88,30.33,7.0,SSE,3.5,-,N/A,,Clear,160,2012-11-19 09:35:00
4:55 AM,35.6,32.9,90,30.34,7.0,South,3.5,-,N/A,,Clear,170,2012-11-19 09:55:00
5:15 AM,35.4,32.5,89,30.34,7.0,South,3.5,-,N/A,,Clear,170,2012-11-19 10:15:00
5:35 AM,34.2,32.0,92,30.33,5.0,South,3.5,-,N/A,,Clear,170,2012-11-19 10:35:00
5:55 AM,35.2,32.5,90,30.33,7.0,South,3.5,-,N/A,,Clear,170,2012-11-19 10:55:00
6:15 AM,35.4,32.5,89,30.33,7.0,South,3.5,-,N/A,,Clear,170,2012-11-19 11:15:00
6:35 AM,35.1,32.4,90,30.32,7.0,South,4.6,-,N/A,,Clear,180,2012-11-19 11:35:00
6:55 AM,35.6,32.7,89,30.32,7.0,South,4.6,-,N/A,,Clear,170,2012-11-19 11:55:00
7:15 AM,35.6,32.4,88,30.32,7.0,South,3.5,-,N/A,,Clear,170,2012-11-19 12:15:00
7:35 AM,32.0,30.4,94,30.32,5.0,Calm,Calm,-,N/A,,Clear,0,2012-11-19 12:35:00
7:55 AM,31.1,29.8,95,30.32,2.0,Calm,Calm,-,N/A,,Clear,0,2012-11-19 12:55:00
8:35 AM,31.8,30.9,96,30.32,2.5,Calm,Calm,-,N/A,,Clear,0,2012-11-19 13:35:00
8:55 AM,32.7,32.0,97,30.31,5.0,SSE,3.5,-,N/A,,Clear,160,2012-11-19 13:55:00
9:15 AM,35.8,32.9,89,30.31,7.0,Calm,Calm,-,N/A,,Clear,0,2012-11-19 14:15:00
9:35 AM,36.1,33.1,89,30.30,7.0,Calm,Calm,-,N/A,,Clear,0,2012-11-19 14:35:00
9:56 AM,37.0,33.6,87,30.30,7.0,SSE,3.5,-,N/A,,Clear,150,2012-11-19 14:56:00
10:15 AM,39.7,34.0,80,30.29,7.0,South,4.6,-,N/A,,Clear,180,2012-11-19 15:15:00
10:35 AM,43.0,34.7,73,30.29,10.0,SSE,3.5,-,N/A,,Clear,160,2012-11-19 15:35:00
10:56 AM,45.1,35.6,69,30.29,10.0,South,5.8,-,N/A,,Clear,190,2012-11-19 15:56:00
11:15 AM,45.5,34.7,66,30.28,10.0,SSE,5.8,-,N/A,,Clear,160,2012-11-19 16:15:00
11:36 AM,45.5,34.3,65,30.27,10.0,SSE,5.8,-,N/A,,Clear,160,2012-11-19 16:36:00
11:55 AM,46.0,34.9,65,30.26,10.0,SSE,5.8,-,N/A,,Clear,150,2012-11-19 16:55:00
12:15 PM,49.1,35.8,60,30.25,10.0,SSE,5.8,-,N/A,,Clear,150,2012-11-19 17:15:00
12:35 PM,49.5,36.3,61,30.23,10.0,Calm,Calm,-,N/A,,Clear,0,2012-11-19 17:35:00
12:55 PM,50.7,36.3,58,30.23,10.0,Calm,Calm,-,N/A,,Clear,0,2012-11-19 17:55:00
1:15 PM,50.9,37.6,60,30.23,10.0,Calm,Calm,-,N/A,,Clear,0,2012-11-19 18:15:00
1:35 PM,51.8,37.2,58,30.22,10.0,SE,3.5,-,N/A,,Clear,130,2012-11-19 18:35:00
1:55 PM,49.6,37.9,64,30.22,10.0,ENE,6.9,-,N/A,,Scattered Clouds,60,2012-11-19 18:55:00
2:15 PM,47.5,38.8,72,30.22,10.0,NE,5.8,-,N/A,,Overcast,50,2012-11-19 19:15:00
2:35 PM,46.9,39.6,76,30.21,10.0,ENE,4.6,-,N/A,,Overcast,70,2012-11-19 19:35:00
2:56 PM,47.3,40.1,76,30.21,10.0,NE,4.6,-,N/A,,Overcast,50,2012-11-19 19:56:00
3:15 PM,46.9,40.6,79,30.20,10.0,ENE,4.6,-,N/A,,Mostly Cloudy,70,2012-11-19 20:15:00
3:35 PM,46.6,41.0,81,30.20,10.0,Calm,Calm,-,N/A,,Mostly Cloudy,0,2012-11-19 20:35:00
3:56 PM,46.6,41.0,81,30.19,10.0,Calm,Calm,-,N/A,,Mostly Cloudy,0,2012-11-19 20:56:00
4:15 PM,47.5,41.0,78,30.19,10.0,Calm,Calm,-,N/A,,Overcast,0,2012-11-19 21:15:00
4:35 PM,46.8,40.5,79,30.19,10.0,Calm,Calm,-,N/A,,Overcast,0,2012-11-19 21:35:00
4:55 PM,46.4,40.1,79,30.18,10.0,Calm,Calm,-,N/A,,Overcast,0,2012-11-19 21:55:00
5:15 PM,45.5,40.3,82,30.18,10.0,Calm,Calm,-,N/A,,Overcast,0,2012-11-19 22:15:00
5:35 PM,44.2,40.1,85,30.17,10.0,Calm,Calm,-,N/A,,Overcast,0,2012-11-19 22:35:00
5:55 PM,43.7,39.4,85,30.17,10.0,Calm,Calm,-,N/A,,Overcast,0,2012-11-19 22:55:00
6:15 PM,47.7,37.9,69,30.16,10.0,SE,4.6,-,N/A,,Overcast,130,2012-11-19 23:15:00
6:35 PM,48.0,37.2,66,30.17,10.0,SSE,3.5,-,N/A,,Overcast,160,2012-11-19 23:35:00
6:55 PM,46.0,37.6,72,30.16,10.0,SE,5.8,-,N/A,,Overcast,140,2012-11-19 23:55:00
7:15 PM,46.8,37.2,69,30.16,10.0,Calm,Calm,-,N/A,,Overcast,0,2012-11-20 00:15:00
7:35 PM,47.7,36.3,65,30.16,10.0,Calm,Calm,-,N/A,,Overcast,0,2012-11-20 00:35:00
7:55 PM,45.0,37.4,75,30.16,10.0,Calm,Calm,-,N/A,,Overcast,0,2012-11-20 00:55:00
8:15 PM,44.2,37.4,77,30.16,10.0,Calm,Calm,-,N/A,,Overcast,0,2012-11-20 01:15:00
8:35 PM,43.5,37.4,79,30.15,10.0,Calm,Calm,-,N/A,,Overcast,0,2012-11-20 01:35:00
8:55 PM,42.8,37.6,82,30.15,10.0,Calm,Calm,-,N/A,,Overcast,0,2012-11-20 01:55:00
9:15 PM,43.7,36.7,76,30.15,10.0,Calm,Calm,-,N/A,,Overcast,0,2012-11-20 02:15:00
9:35 PM,43.9,36.5,75,30.15,10.0,SE,3.5,-,N/A,,Overcast,140,2012-11-20 02:35:00
10:35 PM,45.5,35.6,68,30.13,10.0,Calm,Calm,-,N/A,,Overcast,0,2012-11-20 03:35:00
10:55 PM,43.3,36.3,76,30.13,10.0,Calm,Calm,-,N/A,,Overcast,0,2012-11-20 03:55:00
11:15 PM,45.5,35.1,67,30.13,10.0,SSE,4.6,-,N/A,,Mostly Cloudy,160,2012-11-20 04:15:00
11:35 PM,45.5,34.3,65,30.13,10.0,SSE,4.6,-,N/A,,Mostly Cloudy,160,2012-11-20 04:35:00
11:55 PM,45.5,33.4,63,30.13,10.0,South,4.6,-,N/A,,Overcast,180,2012-11-20 04:55:00